• In Uzbekistan
  • List of Countries
  • For 7 days
  • Water Temperature
  • Satellite Maps
  • Weather Map
  • Weather Widgets
  • user-avatar
    Login

    Hourly Weather Rhodes

    Today, 23 October, Tuesday

    Time Temperature Precipitation Wind Pressure Humidity
    00:00 +23°C° 0 mm 2 mps 733 mmHg 65%
    01:00 +22°C° 0 mm 3 mps 733 mmHg 65%
    02:00 +22°C° 0 mm 3 mps 733 mmHg 64%
    03:00 +22°C° 0 mm 3 mps 733 mmHg 65%
    04:00 +22°C° 0 mm 3 mps 732 mmHg 65%
    05:00 +22°C° 0 mm 3 mps 732 mmHg 65%
    06:00 +22°C° 0.4 mm 3 mps 732 mmHg 66%
    07:00 +22°C° 0.4 mm 3 mps 733 mmHg 67%
    08:00 +22°C° 0.4 mm 3 mps 733 mmHg 68%
    09:00 +22°C° 0.7 mm 3 mps 732 mmHg 67%
    10:00 +22°C° 0.7 mm 3 mps 732 mmHg 67%
    11:00 +22°C° 0.7 mm 3 mps 732 mmHg 67%
    12:00 +22°C° 1.4 mm 3 mps 732 mmHg 69%
    13:00 +22°C° 1.4 mm 3 mps 731 mmHg 71%
    14:00 +22°C° 1.4 mm 3 mps 731 mmHg 72%
    15:00 +21°C° 1.4 mm 4 mps 731 mmHg 74%
    16:00 +21°C° 1.4 mm 4 mps 731 mmHg 75%
    17:00 +21°C° 1.4 mm 5 mps 730 mmHg 76%
    18:00 +21°C° 0.6 mm 5 mps 730 mmHg 75%
    19:00 +21°C° 0.6 mm 5 mps 730 mmHg 74%
    20:00 +21°C° 0.6 mm 6 mps 730 mmHg 73%
    21:00 +21°C° 0.5 mm 5 mps 730 mmHg 72%
    22:00 +21°C° 0.5 mm 5 mps 730 mmHg 71%
    23:00 +21°C° 0.5 mm 5 mps 730 mmHg 70%

    Tomorrow, 24 October, Wednesday

    Time Temperature Precipitation Wind Pressure Humidity
    00:00 +21°C° 0.1 mm 4 mps 730 mmHg 69%
    01:00 +21°C° 0.1 mm 4 mps 729 mmHg 69%
    02:00 +21°C° 0.1 mm 4 mps 729 mmHg 68%
    03:00 +21°C° 0.5 mm 4 mps 729 mmHg 67%
    04:00 +21°C° 0.5 mm 3 mps 729 mmHg 67%
    05:00 +21°C° 0.5 mm 3 mps 728 mmHg 67%
    06:00 +21°C° 0.3 mm 3 mps 728 mmHg 67%
    07:00 +21°C° 0.3 mm 3 mps 728 mmHg 67%
    08:00 +21°C° 0.3 mm 3 mps 728 mmHg 67%
    09:00 +21°C° 0.5 mm 3 mps 728 mmHg 66%
    10:00 +21°C° 0.5 mm 2 mps 728 mmHg 66%
    11:00 +21°C° 0.5 mm 2 mps 728 mmHg 66%
    12:00 +23°C° 0.4 mm 2 mps 728 mmHg 67%
    13:00 +22°C° 0.4 mm 3 mps 727 mmHg 67%
    14:00 +22°C° 0.4 mm 3 mps 727 mmHg 67%
    15:00 +22°C° 0.4 mm 3 mps 727 mmHg 68%
    16:00 +21°C° 0.4 mm 3 mps 726 mmHg 68%
    17:00 +21°C° 0.4 mm 3 mps 726 mmHg 69%
    18:00 +21°C° 0.5 mm 3 mps 726 mmHg 70%
    19:00 +21°C° 0.5 mm 4 mps 727 mmHg 70%
    20:00 +21°C° 0.5 mm 4 mps 727 mmHg 71%
    21:00 +21°C° 0.7 mm 4 mps 727 mmHg 72%
    22:00 +20°C° 0.7 mm 5 mps 727 mmHg 72%
    23:00 +20°C° 0.7 mm 5 mps 727 mmHg 73%

    Day after tomorrow, 25 October, Thursday

    Time Temperature Precipitation Wind Pressure Humidity
    00:00 +20°C° 0.5 mm 6 mps 727 mmHg 73%
    01:00 +20°C° 0.5 mm 7 mps 727 mmHg 73%
    02:00 +20°C° 0.5 mm 8 mps 726 mmHg 73%
    03:00 +19°C° 0.2 mm 9 mps 726 mmHg 71%
    04:00 +19°C° 0.2 mm 9 mps 726 mmHg 69%
    05:00 +19°C° 0.2 mm 10 mps 726 mmHg 68%
    06:00 +19°C° 0 mm 10 mps 726 mmHg 66%
    07:00 +19°C° 0 mm 11 mps 727 mmHg 65%
    08:00 +19°C° 0 mm 11 mps 727 mmHg 64%
    09:00 +19°C° 0 mm 12 mps 728 mmHg 62%
    10:00 +19°C° 0 mm 12 mps 728 mmHg 61%
    11:00 +19°C° 0 mm 13 mps 728 mmHg 59%
    12:00 +18°C° 0 mm 14 mps 728 mmHg 55%
    13:00 +17°C° 0 mm 14 mps 729 mmHg 52%
    14:00 +17°C° 0 mm 15 mps 729 mmHg 48%
    15:00 +17°C° 0 mm 15 mps 729 mmHg 48%
    16:00 +17°C° 0 mm 15 mps 729 mmHg 48%
    17:00 +15°C° 0 mm 15 mps 729 mmHg 47%
    18:00 +15°C° 0 mm 14 mps 730 mmHg 48%
    19:00 +15°C° 0 mm 14 mps 730 mmHg 48%
    20:00 +15°C° 0 mm 13 mps 731 mmHg 48%
    21:00 +15°C° 0 mm 12 mps 731 mmHg 48%
    22:00 +16°C° 0 mm 11 mps 732 mmHg 48%
    23:00 +16°C° 0 mm 10 mps 732 mmHg 48%

    26 October, Friday

    Time Temperature Precipitation Wind Pressure Humidity
    00:00 +16°C° 0 mm 10 mps 732 mmHg 49%
    01:00 +14°C° 0 mm 10 mps 733 mmHg 50%
    02:00 +15°C° 0 mm 9 mps 733 mmHg 50%
    03:00 +15°C° 0 mm 9 mps 733 mmHg 50%
    04:00 +15°C° 0 mm 9 mps 733 mmHg 50%
    05:00 +15°C° 0 mm 8 mps 733 mmHg 50%
    06:00 +15°C° 0 mm 8 mps 734 mmHg 49%
    07:00 +15°C° 0 mm 8 mps 734 mmHg 49%
    08:00 +15°C° 0 mm 7 mps 735 mmHg 48%
    09:00 +16°C° 0 mm 7 mps 735 mmHg 47%
    10:00 +16°C° 0 mm 6 mps 735 mmHg 45%
    11:00 +17°C° 0 mm 6 mps 735 mmHg 44%
    12:00 +17°C° 0 mm 6 mps 735 mmHg 43%
    13:00 +19°C° 0 mm 6 mps 735 mmHg 43%
    14:00 +19°C° 0 mm 6 mps 735 mmHg 43%
    15:00 +19°C° 0 mm 6 mps 735 mmHg 44%
    16:00 +20°C° 0 mm 6 mps 735 mmHg 44%
    17:00 +20°C° 0 mm 6 mps 735 mmHg 45%
    18:00 +20°C° 0 mm 5 mps 736 mmHg 46%
    19:00 +20°C° 0 mm 5 mps 736 mmHg 46%
    20:00 +20°C° 0 mm 5 mps 737 mmHg 47%
    21:00 +20°C° 0 mm 4 mps 737 mmHg 46%
    22:00 +20°C° 0 mm 4 mps 737 mmHg 46%
    23:00 +20°C° 0 mm 3 mps 737 mmHg 46%

    27 October, Saturday

    Time Temperature Precipitation Wind Pressure Humidity
    00:00 +20°C° 0 mm 3 mps 737 mmHg 45%
    01:00 +20°C° 0 mm 2 mps 737 mmHg 45%
    02:00 +20°C° 0 mm 2 mps 737 mmHg 45%
    03:00 +19°C° 0 mm 2 mps 737 mmHg 45%
    04:00 +19°C° 0 mm 2 mps 737 mmHg 45%
    05:00 +20°C° 0 mm 1 mps 737 mmHg 45%
    06:00 +20°C° 0 mm 1 mps 737 mmHg 45%
    07:00 +20°C° 0 mm 1 mps 738 mmHg 45%
    08:00 +21°C° 0 mm 1 mps 738 mmHg 45%
    09:00 +20°C° 0 mm 2 mps 738 mmHg 45%
    10:00 +20°C° 0 mm 2 mps 738 mmHg 45%
    11:00 +20°C° 0 mm 2 mps 738 mmHg 45%
    12:00 +21°C° 0 mm 2 mps 738 mmHg 45%
    13:00 +21°C° 0 mm 2 mps 738 mmHg 46%
    14:00 +21°C° 0 mm 2 mps 738 mmHg 46%
    15:00 +21°C° 0 mm 2 mps 737 mmHg 46%
    16:00 +21°C° 0 mm 2 mps 737 mmHg 47%
    17:00 +21°C° 0 mm 2 mps 737 mmHg 47%
    18:00 +21°C° 0 mm 2 mps 738 mmHg 48%
    19:00 +21°C° 0 mm 2 mps 738 mmHg 48%
    20:00 +21°C° 0 mm 2 mps 738 mmHg 49%
    21:00 +20°C° 0 mm 3 mps 738 mmHg 50%
    22:00 +20°C° 0 mm 3 mps 738 mmHg 51%
    23:00 +20°C° 0 mm 3 mps 738 mmHg 52%

    28 October, Sunday

    Time Temperature Precipitation Wind Pressure Humidity
    00:00 +20°C° 0 mm 3 mps 738 mmHg 53%
    01:00 +20°C° 0 mm 3 mps 737 mmHg 54%
    02:00 +20°C° 0 mm 3 mps 737 mmHg 55%
    03:00 +20°C° 0 mm 3 mps 737 mmHg 55%
    04:00 +20°C° 0 mm 4 mps 737 mmHg 56%
    05:00 +20°C° 0 mm 4 mps 737 mmHg 57%
    06:00 +20°C° 0 mm 4 mps 737 mmHg 57%
    07:00 +20°C° 0 mm 4 mps 737 mmHg 57%
    08:00 +20°C° 0 mm 4 mps 737 mmHg 57%
    09:00 +20°C° 0 mm 4 mps 737 mmHg 57%
    10:00 +20°C° 0 mm 4 mps 737 mmHg 57%
    11:00 +21°C° 0 mm 4 mps 737 mmHg 57%
    12:00 +21°C° 0 mm 3 mps 737 mmHg 57%
    13:00 +21°C° 0 mm 3 mps 736 mmHg 56%
    14:00 +21°C° 0 mm 3 mps 736 mmHg 56%
    15:00 +21°C° 0 mm 3 mps 736 mmHg 56%
    16:00 +21°C° 0 mm 3 mps 735 mmHg 56%
    17:00 +21°C° 0 mm 3 mps 735 mmHg 56%
    18:00 +21°C° 0 mm 4 mps 735 mmHg 57%
    19:00 +21°C° 0 mm 4 mps 736 mmHg 58%
    20:00 +21°C° 0 mm 4 mps 736 mmHg 59%
    21:00 +21°C° 0 mm 4 mps 735 mmHg 59%
    22:00 +21°C° 0 mm 4 mps 735 mmHg 60%
    23:00 +21°C° 0 mm 5 mps 735 mmHg 61%

    29 October, Monday

    Time Temperature Precipitation Wind Pressure Humidity
    00:00 +21°C° 0 mm 5 mps 735 mmHg 62%
    01:00 +21°C° 0 mm 5 mps 735 mmHg 62%
    02:00 +21°C° 0 mm 5 mps 734 mmHg 63%
    03:00 +21°C° 0 mm 5 mps 734 mmHg 63%
    04:00 +21°C° 0 mm 5 mps 734 mmHg 64%
    05:00 +21°C° 0 mm 5 mps 734 mmHg 64%
    06:00 +21°C° 0 mm 6 mps 734 mmHg 64%
    07:00 +21°C° 0 mm 6 mps 734 mmHg 63%
    08:00 +21°C° 0 mm 7 mps 734 mmHg 63%
    09:00 +21°C° 0 mm 7 mps 734 mmHg 62%
    10:00 +22°C° 0 mm 7 mps 734 mmHg 62%
    11:00 +22°C° 0 mm 7 mps 734 mmHg 62%
    12:00 +22°C° 0 mm 7 mps 734 mmHg 62%
    13:00 +22°C° 0 mm 7 mps 733 mmHg 62%
    14:00 +22°C° 0 mm 6 mps 733 mmHg 63%
    15:00 +22°C° 0 mm 6 mps 733 mmHg 63%
    16:00 +22°C° 0 mm 6 mps 733 mmHg 63%
    17:00 +22°C° 0 mm 6 mps 733 mmHg 64%
    18:00 +22°C° 0 mm 6 mps 733 mmHg 63%
    19:00 +22°C° 0 mm 6 mps 733 mmHg 63%
    20:00 +22°C° 0 mm 5 mps 733 mmHg 63%
    21:00 +22°C° 0 mm 5 mps 733 mmHg 63%
    22:00 +22°C° 0 mm 5 mps 733 mmHg 63%
    23:00 +22°C° 0 mm 5 mps 734 mmHg 62%
    Show more